{"data":{"norad_id":56698,"intl_designator":"2023-067L","name":"STARLINK-30068","alt_names":[],"object_type":"PAYLOAD","status":"ACTIVE","operator":null,"country":"US","launch_date":"2023-05-19","launch_site_code":"AFETR","launch_vehicle":null,"mission":null,"orbit_class":"UNKNOWN","rcs_meters":null,"size_class":null,"mass_kg":null,"dimensions":null,"purposes":["comms"],"wikipedia_slug":null,"has_3d_model":false,"image_url":null,"decayed_at":null,"tle_current":{"epoch":"2026-09-20T15:20:16.388448Z","epoch_age_seconds":102940,"freshness":"FRESH","line1":"1 56698U 23067L   26263.63907857 -.00000080  00000+0  66136-5 0  9991","line2":"2 56698  43.0011 238.9190 0000990 261.2464  98.8276 15.27577511185386","mean_motion":15.27577511,"eccentricity":9.9e-5,"inclination_deg":43.0011,"raan_deg":238.919,"arg_perigee_deg":261.2464,"mean_anomaly_deg":98.8276,"bstar":6.6136e-6,"rev_number":18538,"period_min":94.266902309745,"perigee_km":482.37729084983,"apogee_km":483.73580717254,"semimajor_km":6861.1935490112,"source":"CELESTRAK","updated_at":"2026-09-21T09:00:33.482640Z"}}}